Tracking 19717 objects as of 24-Jun-2019
HD Live streaming from Space Station
objects crossing your sky now

TRANSIT 15 DEB

Track TRANSIT 15 DEB now!
10-day predictions


NORAD ID: 29265
Int'l Code: 1967-034K
Perigee: 787.7 km
Apogee: 857.4 km
Inclination: 90.2 °
Period: 101.2 minutes
Semi major axis: 7193 km
RCS: 0.0077 m2 (small)
Launch date: April 14, 1967
Source: United States (US)
Launch site: AIR FORCE WESTERN TEST RANGE (AFWTR)

Note: This is SATELLITE DEBRIS
aabbcc
Your satellite tracking list
Your tracking list is empty




NASA's NSSDC Master Catalog

Two Line Element Set (TLE):
1 29265U 67034K   19174.35789586  .00003596  00000-0  15755-2 0  9995
2 29265  90.2127 322.6470 0048471  87.3551 273.3188 14.22941211769577
Source of the keplerian elements: AFSPC